Flag for Russia Weather past 2 weeks in Nizhny Novgorod, Russia

Now
36 °F

Light snow. Mostly cloudy.


Feels Like: 26 °F
Forecast: 32 / 40 °F
Wind: 15 mph from Southeast

Location: Nizhny Novgorod/Strigino

Current Time: Apr 2, 2015 at 1:26:43 PM

Latest Report: Apr 2, 2015 at 12:30 PM


Visibility: 4 mi

Pressure: 29.86 "Hg

Humidity: 75%

Dew point: 28 °F

Location of Nizhny NovgorodLocation

Historic Weather in Nizhny Novgorod — Graph

°F

Nizhny Novgorod temperature yesterday

Maximum temperature yesterday: 41 °F (at 1:00 PM)
Minimum temperature yesterday: 30 °F (at 12:00 AM)
Average temperature yesterday: 36 °F

Past Weeks' High & Low Weather Summary

 TemperatureHumidityPressure
High54 °F (Mar 18, 4:30 PM)100% (Mar 24, 10:30 AM)30.80 "Hg (Mar 24, 10:30 AM)
Low18 °F (Mar 23, 4:30 AM)19% (Mar 19, 4:00 PM)29.59 "Hg (Mar 21, 3:00 PM)
Average32 °F52%30.16 "Hg
* Reported Mar 18 12:00 Noon — Apr 2 12:30 PM, Nizhny Novgorod, Weather by CustomWeather, © 2015

Note: Actual official high and low records may vary slightly from our data, if they occured in-between our weather recording intervals... More about our weather records

Advertising

Nizhny Novgorod weather history for previous 24 hours

 ConditionsComfort  
Time TempWeatherWind HumidityBarometerVisibility
12:30 PM
Thu, Apr 2
36 °FLight snow. Mostly cloudy.15 mph75%29.86 "Hg4 mi
12:00 PM34 °FSnow flurries. Overcast.15 mph87%29.83 "Hg3 mi
11:30 AM34 °FSnow flurries. Overcast.15 mph81%29.83 "Hg2 mi
11:00 AM34 °FSnow flurries. Overcast.15 mph81%29.83 "Hg2 mi
10:30 AM34 °FSnow flurries. Overcast.15 mph75%29.83 "Hg3 mi
10:00 AM34 °FSnow flurries. Mostly cloudy.17 mph70%29.83 "Hg2 mi
9:30 AM34 °FSnow flurries. Mostly cloudy.17 mph65%29.83 "Hg3 mi
9:00 AM36 °FLight snow. Mostly cloudy.17 mph52%29.80 "Hg6 mi
8:30 AM36 °FLight snow. Mostly cloudy.17 mph52%29.80 "HgN/A
8:00 AM36 °FOvercast.15 mph48%29.80 "HgN/A
7:30 AM36 °FOvercast.15 mph48%29.80 "HgN/A
7:00 AM36 °FPartly sunny.15 mph48%29.80 "HgN/A
6:30 AM36 °FPassing clouds.13 mph48%29.80 "HgN/A
6:00 AM36 °FPassing clouds.15 mph48%29.83 "HgN/A
5:30 AM36 °FPassing clouds.13 mph48%29.83 "HgN/A
5:00 AM36 °FPassing clouds.10 mph52%29.83 "HgN/A
4:30 AM36 °FPassing clouds.13 mph52%29.83 "HgN/A
4:00 AM36 °FClear.15 mph52%29.83 "Hg10 mi
3:30 AM36 °FClear.10 mph52%29.83 "Hg10 mi
3:00 AM36 °FClear.13 mph52%29.86 "Hg10 mi
2:30 AM36 °FClear.15 mph52%29.86 "Hg10 mi
2:00 AM37 °FClear.13 mph48%29.86 "Hg10 mi
1:30 AM37 °FClear.13 mph48%29.89 "Hg10 mi
1:00 AM37 °FClear.13 mph48%29.89 "Hg10 mi
12:30 AM37 °FClear.13 mph48%29.89 "Hg10 mi
12:00 AM37 °FClear.10 mph48%29.92 "Hg10 mi
11:30 PM
Wed, Apr 1
37 °FPassing clouds.8 mph45%29.92 "HgN/A
11:00 PM37 °FPassing clouds.10 mph45%29.92 "HgN/A
10:30 PM37 °FPassing clouds.8 mph45%29.95 "HgN/A
10:00 PM37 °FPassing clouds.10 mph45%29.95 "HgN/A
9:30 PM37 °FPassing clouds.8 mph45%29.95 "HgN/A
9:00 PM39 °FClear.8 mph39%29.95 "Hg10 mi
8:30 PM39 °FClear.13 mph39%29.95 "Hg10 mi
8:00 PM39 °FClear.13 mph42%29.95 "Hg10 mi
7:30 PM39 °FSunny.8 mph42%29.95 "Hg10 mi
7:00 PM39 °FSunny.10 mph39%29.95 "Hg10 mi
6:30 PM39 °FSunny.10 mph42%29.92 "Hg10 mi
6:00 PM41 °FSunny.13 mph39%29.92 "Hg10 mi
5:30 PM41 °FSunny.13 mph36%29.92 "Hg10 mi
5:00 PM41 °FSunny.17 mph36%29.92 "Hg10 mi
4:30 PM41 °FSunny.15 mph36%29.95 "Hg10 mi
4:00 PM41 °FSunny.17 mph33%29.95 "Hg10 mi
3:30 PM41 °FSunny.20 mph33%29.95 "Hg10 mi
3:00 PM41 °FSunny.17 mph36%29.95 "Hg10 mi
2:30 PM41 °FSunny.17 mph36%29.98 "Hg10 mi
2:00 PM41 °FSunny.15 mph36%29.98 "Hg10 mi
1:30 PM39 °FSunny.17 mph42%29.98 "Hg10 mi
1:00 PM41 °FSunny.17 mph39%29.98 "Hg10 mi
Weather by CustomWeather, © 2015

See weather overviewHow to use our weather pages